BREEZE M DEB (TANK) - Orbit

View from above orbital plane
View from above orbital plane
View from above satellite
View from above satellite

Ground track
Ground track

The orbit data is extracted from the following two-line orbital elements,

1 33437U 08057B   13137.03207235  .00004173  00000-0  99382-3 0  8478
2 33437 049.5574 073.5720 5042180 078.6921 354.9704 05.52233144 90698
Epoch (UTC): 17 May 2013 00:46:11
Eccentricity: 0.5042180
inclination: 49.5574°
perigee height: 325 km
apogee height: 13959 km
right ascension of ascending node: 73.5720°
argument of perigee: 78.6921°
revolutions per day: 5.52233144
mean anomaly at epoch: 354.9704°
orbit number at epoch: 9069

The dashed part of the orbit path shows where the satellite is in the earth's shadow,  

Developed and maintained by Chris Peat, Heavens-Above GmbH. Please read the updated FAQ before sending e-mail. Imprint. DLR